TimeEDT,TemperatureF,Dew PointF,Humidity,Sea Level PressureIn,VisibilityMPH,Wind Direction,Wind SpeedMPH,Gust SpeedMPH,PrecipitationIn,Events,Conditions,WindDirDegrees,DateUTC
12:53 AM,45.0,41.0,86,29.98,10.0,NW,8.1,-,0.05,Rain,Light Rain,320,2013-05-25 04:53:00
1:53 AM,44.1,41.0,89,29.96,10.0,NW,9.2,-,0.00,Rain,Light Rain,320,2013-05-25 05:53:00
2:35 AM,44.6,41.0,87,29.94,9.0,NW,9.2,-,0.04,Rain,Light Rain,320,2013-05-25 06:35:00
2:53 AM,44.1,41.0,89,29.94,10.0,NW,11.5,17.3,0.06,Rain,Light Rain,320,2013-05-25 06:53:00
3:03 AM,44.6,41.0,87,29.93,10.0,NNW,10.4,17.3,0.01,Rain,Light Rain,330,2013-05-25 07:03:00
3:53 AM,45.0,41.0,86,29.94,10.0,NNW,6.9,-,0.03,Rain,Light Rain,330,2013-05-25 07:53:00
4:53 AM,45.0,42.1,90,29.94,10.0,WNW,5.8,-,0.03,Rain,Light Rain,300,2013-05-25 08:53:00
5:00 AM,46.4,42.8,87,29.93,10.0,NW,6.9,-,0.00,Rain,Light Rain,320,2013-05-25 09:00:00
5:24 AM,44.6,42.8,93,29.93,10.0,Variable,3.5,-,0.01,,Overcast,0,2013-05-25 09:24:00
5:53 AM,46.0,42.1,86,29.94,10.0,NW,8.1,-,0.01,Rain,Light Rain,310,2013-05-25 09:53:00
6:53 AM,46.0,41.0,83,29.95,10.0,NW,12.7,21.9,N/A,,Overcast,310,2013-05-25 10:53:00
7:53 AM,48.0,42.1,80,29.95,10.0,NW,12.7,19.6,0.00,,Overcast,310,2013-05-25 11:53:00
8:53 AM,48.9,41.0,74,29.96,10.0,NW,8.1,17.3,N/A,,Overcast,320,2013-05-25 12:53:00
9:53 AM,51.1,39.9,66,29.96,10.0,NW,19.6,28.8,N/A,,Overcast,320,2013-05-25 13:53:00
10:53 AM,55.0,39.9,57,29.95,10.0,NNW,19.6,27.6,N/A,,Scattered Clouds,330,2013-05-25 14:53:00
11:53 AM,57.0,37.9,49,29.96,10.0,NNW,21.9,36.8,N/A,,Scattered Clouds,330,2013-05-25 15:53:00
12:53 PM,55.0,37.9,53,29.96,10.0,NW,19.6,32.2,0.00,Rain,Light Rain,320,2013-05-25 16:53:00
1:53 PM,57.0,36.0,45,29.96,10.0,NNW,15.0,32.2,0.00,,Overcast,330,2013-05-25 17:53:00
2:53 PM,57.9,37.0,46,29.95,10.0,NW,20.7,36.8,0.00,,Mostly Cloudy,320,2013-05-25 18:53:00
3:53 PM,59.0,36.0,42,29.95,10.0,NNW,18.4,32.2,N/A,,Mostly Cloudy,330,2013-05-25 19:53:00
4:53 PM,57.9,34.0,41,29.95,10.0,NW,17.3,26.5,N/A,,Overcast,320,2013-05-25 20:53:00
5:53 PM,57.0,32.0,39,29.97,10.0,NW,12.7,29.9,N/A,,Overcast,310,2013-05-25 21:53:00
6:53 PM,55.9,33.1,42,29.99,10.0,NW,15.0,26.5,N/A,,Overcast,320,2013-05-25 22:53:00
7:53 PM,55.0,33.1,43,30.01,10.0,NW,16.1,27.6,0.00,,Overcast,310,2013-05-25 23:53:00
8:53 PM,55.0,32.0,42,30.02,10.0,NNW,11.5,20.7,N/A,,Overcast,340,2013-05-26 00:53:00
9:53 PM,54.0,33.1,45,30.03,10.0,NW,6.9,-,N/A,,Overcast,310,2013-05-26 01:53:00
11:53 PM,52.0,34.0,50,30.01,10.0,WNW,4.6,-,N/A,,Scattered Clouds,300,2013-05-26 03:53:00